Location: Savignano sul Rubicone
(44.0950°N, 12.4090°E)
Time: 20:38:41
(UTC+01:00)

Tiangong 2 - Pass Details

Date: 18 February 2019
Orbit: 379 x 390 km, 42.8° (Epoch: 21 March)

Event Time Altitude Azimuth Distance (km) Brightness Sun altitude
Rises 19:35:36 0° 275° (W) 2,253 6.6 -20.8°
Reaches altitude 10° 19:37:57 10° 259° (W) 1,395 5.0 -21.2°
Maximum altitude 19:40:27 22° 206° (SSW) 897 3.1 -21.6°
Enters shadow 19:40:32 22° 204° (SSW) 898 3.1 -21.6°
